This demonstration page uses our WeatherBlox Daily Observations layout. Learn more.

Left ArrowRight Arrow

53.62937, 11.41316

Hourly Observations for April 6, 2022

Temp ( °F °C ) Dew Point ( °F °C ) Humidity (%) Winds ( mph kmh ) Pressure ( in mb ) Visibility ( mi km ) Precip ( " mm )
12:20 am 00:20 Partly Cloudy 39 4 39 4 100 100 Calm 29.50 999 3 4 N/A
12:50 am 00:50 Mostly Cloudy 39 4 39 4 100 100 ENE 1 2 29.50 999 1 1 N/A
1:20 am 01:20 Mostly Cloudy 39 4 39 4 100 100 VRB 1 2 29.50 999 4 6 N/A
1:50 am 01:50 Mostly Cloudy 39 4 39 4 100 100 VRB 1 2 29.50 999 3 5 N/A
2:20 am 02:20 Mostly Cloudy 39 4 39 4 100 100 SE 3 6 29.47 998 3 4 N/A
2:50 am 02:50 Mostly Clear 39 4 39 4 100 100 SE 5 7 29.47 998 3 4 N/A
3:20 am 03:20 Mostly Clear 39 4 39 4 100 100 VRB 2 4 29.44 997 3 5 N/A
3:50 am 03:50 Partly Cloudy 41 5 39 4 93 93 VRB 1 2 29.44 997 3 4 N/A
4:20 am 04:20 Mostly Clear 41 5 41 5 100 100 VRB 2 4 29.44 997 3 5 N/A
4:50 am 04:50 Mostly Clear 45 7 45 7 100 100 WSW 6 9 29.44 997 3 5 N/A
5:20 am 05:20 Partly Cloudy 46 8 45 7 93 93 WSW 9 15 29.44 997 30 48 N/A
5:50 am 05:50 Partly Cloudy 46 8 45 7 93 93 WSW 10 17 29.44 997 4 6 N/A
6:20 am 06:20 Partly Cloudy with Light Rain 46 8 45 7 93 93 WSW 8 13 29.41 996 4 6 N/A
6:50 am 06:50 Mostly Cloudy with Light Rain 46 8 45 7 93 93 WSW 9 15 29.41 996 30 48 N/A
7:20 am 07:20 Mostly Cloudy with Light Rain 46 8 45 7 93 93 VRB 7 11 29.41 996 30 48 N/A
7:50 am 07:50 Mostly Cloudy with Light Rain 46 8 45 7 93 93 SW 8 13 29.41 996 30 48 N/A
8:20 am 08:20 Mostly Cloudy with Light Rain 46 8 45 7 93 93 VRB 7 11 29.41 996 6 9 N/A
8:50 am 08:50 Mostly Cloudy with Light Rain 48 9 45 7 87 87 VRB 7 11 29.41 996 30 48 N/A
9:20 am 09:20 Mostly Cloudy 48 9 45 7 87 87 SW 10 17 29.41 996 30 48 N/A
9:50 am 09:50 Mostly Cloudy 50 10 45 7 82 82 SW 12 19 29.41 996 30 48 N/A
10:20 am 10:20 Cloudy 50 10 45 7 82 82 SW 12 19 29.41 996 30 48 N/A
10:50 am 10:50 Cloudy 50 10 45 7 82 82 SW 12 19 29.41 996 30 48 N/A
11:20 am 11:20 Mostly Cloudy 50 10 45 7 82 82 WSW 12 19 29.41 996 30 48 N/A
11:50 am 11:50 Mostly Cloudy 50 10 45 7 82 82 WSW 14 22 29.41 996 30 48 N/A
12:20 pm 12:20 Mostly Cloudy with Light Rain 48 9 45 7 87 87 WSW 12 19 29.38 995 4 6 N/A
12:50 pm 12:50 Mostly Cloudy with Light Rain 48 9 46 8 94 94 SW 8 13 29.38 995 4 7 N/A
1:20 pm 13:20 Mostly Cloudy 48 9 45 7 87 87 VRB 12 19 29.38 995 30 48 N/A
1:50 pm 13:50 Mostly Cloudy 48 9 45 7 87 87 VRB 12 19 29.38 995 30 48 N/A
2:20 pm 14:20 Cloudy 48 9 45 7 87 87 SW 9 15 29.38 995 30 48 N/A
2:50 pm 14:50 Mostly Cloudy 50 10 46 8 88 88 VRB 9 15 29.38 995 30 48 N/A
3:20 pm 15:20 Mostly Cloudy 50 10 45 7 82 82 VRB 10 17 29.38 995 30 48 N/A
3:50 pm 15:50 Mostly Cloudy 50 10 45 7 82 82 SW 9 15 29.38 995 30 48 N/A
4:20 pm 16:20 Mostly Cloudy with Light Rain 50 10 45 7 82 82 VRB 8 13 29.35 994 30 48 N/A
4:50 pm 16:50 Mostly Cloudy 50 10 45 7 82 82 VRB 12 19 29.35 994 30 48 N/A
5:20 pm 17:20 Mostly Cloudy 50 10 45 7 82 82 SW 9 15 29.35 994 30 48 N/A
5:50 pm 17:50 Mostly Cloudy 50 10 45 7 82 82 VRB 10 17 29.35 994 30 48 N/A
6:20 pm 18:20 Mostly Cloudy 50 10 45 7 82 82 VRB 9 15 29.32 993 30 48 N/A
6:50 pm 18:50 Cloudy 50 10 45 7 82 82 SSW 7 11 29.32 993 30 48 N/A
7:20 pm 19:20 Mostly Cloudy 50 10 45 7 82 82 SSW 10 17 29.32 993 30 48 N/A
7:50 pm 19:50 Mostly Cloudy with Light Rain 48 9 45 7 87 87 SSW 10 17 29.32 993 30 48 N/A
8:20 pm 20:20 Mostly Cloudy with Light Rain 48 9 45 7 87 87 SSW 6 9 29.30 992 4 7 N/A
8:50 pm 20:50 Mostly Cloudy with Light Rain 48 9 45 7 87 87 SSW 9 15 29.30 992 30 48 N/A
9:20 pm 21:20 Cloudy 48 9 45 7 87 87 SSW 9 15 29.30 992 30 48 N/A
9:50 pm 21:50 Mostly Cloudy 50 10 45 7 82 82 VRB 8 13 29.29 992 30 48 N/A
10:20 pm 22:20 Mostly Cloudy 48 9 43 6 82 82 SW 9 15 29.30 992 30 48 N/A
10:50 pm 22:50 Mostly Cloudy 48 9 43 6 82 82 SSW 10 17 29.27 991 30 48 N/A
11:20 pm 23:20 Mostly Cloudy 48 9 43 6 82 82 VRB 10 17 29.27 991 30 48 N/A
11:50 pm 23:50 Cloudy 48 9 43 6 82 82 VRB 9 15 29.24 990 30 48 N/A

Powered by AerisWeather